Regional Weather Roundup
Issued by NWS

Home | Current Version | Previous Version | Graphics & Text | Print | Product List | Glossary On
Versions: 1 2 3 4 5 6 7 8 9 10 11 12 13 14 15 16 17 18 19 20 21 22 23 24 25 26 27 28 29 30 31 32 33 34 35 36 37 38 39 40 41 42 43 44 45 46 47 48 49 50
000
ASUS43 KOAX 230002
RWRNE

WEATHER ROUNDUP FOR NEBRASKA
NATIONAL WEATHER SERVICE OMAHA NE
700 PM CDT THU JUN 22 2017

NOTES: SATELLITE DATA IS BEING USED TO AUGMENT CLOUD COVER ABOVE
       12000 FEET.
       "FAIR" INDICATES FEW OR NO CLOUDS BELOW 12,000 FEET WITH NO
       SIGNIFICANT WEATHER AND/OR OBSTRUCTIONS TO VISIBILITY.

  * THESE STATIONS DO NOT REPORT WEATHER SUCH AS RAIN...SNOW OR FOG.

NEZ001>004-019>022-054>056-230100-
NEBRASKA PANHANDLE

CITY           SKY/WX    TMP DP  RH WIND       PRES   REMARKS
SCOTTSBLUFF    PTSUNNY   78  51  38 NE13      29.92R
6HR MIN TEMP:  77; 6HR MAX TEMP:  81;

ALLIANCE       SUNNY     76  49  38 N10       29.92R
6HR MIN TEMP:  73; 6HR MAX TEMP:  79;

CHADRON        SUNNY     78  42  27 NE12G17   29.91S
6HR MIN TEMP:  73; 6HR MAX TEMP:  79;

GORDON         FAIR      76  44  31 N14       29.92R
6HR MIN TEMP:  69; 6HR MAX TEMP:  77;

KIMBALL        PTSUNNY   75  54  46 NE14G20   29.97R
SIDNEY         PTSUNNY   78  54  43 E16       29.94R
6HR MIN TEMP:  76; 6HR MAX TEMP:  83;

$$

NEZ057>060-069>072-079>082-230100-
SOUTHWEST NEBRASKA

CITY           SKY/WX    TMP DP  RH WIND       PRES   REMARKS
NORTH PLATTE   PTSUNNY   79  58  48 N14G23    29.83R
6HR MIN TEMP:  79; 6HR MAX TEMP:  87;

IMPERIAL       PTSUNNY   82  55  39 NE17G30   29.85R
6HR MIN TEMP:  81; 6HR MAX TEMP:  89;

LEXINGTON      PTSUNNY   81  60  48 NE20G25   29.76R
MCCOOK         SUNNY     85  61  44 NE20      29.77R
6HR MIN TEMP:  85; 6HR MAX TEMP:  97;

OGALLALA       CLOUDY    80  55  41 N14G21    29.88R
$$

NEZ005>010-023>029-035>040-094-230100-
NORTH CENTRAL NEBRASKA

CITY           SKY/WX    TMP DP  RH WIND       PRES   REMARKS
VALENTINE      SUNNY     79  43  27 N14       29.87S
6HR MIN TEMP:  69; 6HR MAX TEMP:  81;

AINSWORTH      CLOUDY    71  51  49 NE10      29.88S
BROKEN BOW     PTSUNNY   78  59  51 N18G28    29.80R
6HR MIN TEMP:  78; 6HR MAX TEMP:  83;

O`NEILL        PTSUNNY   73  60  64 N15G21    29.82F
ORD            PTSUNNY   78  59  51 N20G28    29.76S
6HR MIN TEMP:  78; 6HR MAX TEMP:  85;

THEDFORD       SUNNY     75  47  36 N14G22    29.88R
$$

NEZ041-046>049-061>064-073>077-083>087-230100-
SOUTH CENTRAL NEBRASKA

CITY           SKY/WX    TMP DP  RH WIND       PRES   REMARKS
GRAND ISLAND   MOSUNNY   81  63  54 N21G31    29.71R
6HR MIN TEMP:  81; 6HR MAX TEMP:  92;

AURORA         SUNNY     84  64  51 N20G29    29.69R
HASTINGS       SUNNY     84  64  50 N21G30    29.70R
6HR MIN TEMP:  84; 6HR MAX TEMP:  92;

HEBRON         SUNNY     92  66  41 N9G17     29.60S HX  95
HOLDREGE       SUNNY     82  60  46 NE23      29.72S
KEARNEY *      MOSUNNY   82  59  44 N24       29.73R
$$

NEZ011>018-030>034-042>045-230100-
NORTHEAST NEBRASKA

CITY           SKY/WX    TMP DP  RH WIND       PRES   REMARKS
NORFOLK        MOSUNNY   77  63  61 N20G30    29.72R
6HR MIN TEMP:  77; 6HR MAX TEMP:  86;

ALBION         SUNNY     78  62  57 N17G26    29.76R
BLAIR          MOSUNNY   87  69  53 N6        29.64S HX  91
FREMONT        PTSUNNY   86  68  54 N9        29.65R
TEKAMAH        CLOUDY    85  65  51 N12       29.64R
6HR MIN TEMP:  85; 6HR MAX TEMP:  90;

WAYNE          CLOUDY    80  66  63 N20G28    29.72R
$$

NEZ050>053-065>068-078-088>093-230100-
SOUTHEAST NEBRASKA

CITY           SKY/WX    TMP DP  RH WIND       PRES   REMARKS
LINCOLN        MOSUNNY   88  71  57 NE9       29.62R HX  94
6HR MIN TEMP:  84; 6HR MAX TEMP:  92;

OMAHA EPPLEY   PTSUNNY   89  68  49 NW8       29.61S HX  93
6HR MIN TEMP:  85; 6HR MAX TEMP:  92; 6HR PCP: TRACE;

BEATRICE       MOSUNNY   90  71  54 SE12      29.60S HX  97
FALLS CITY     CLOUDY    88  67  49 S12       29.63R HX  91
6HR MIN TEMP:  86; 6HR MAX TEMP:  89;

NEBRASKA CITY  MOSUNNY   87  70  57 S10       29.63R HX  92
PLATTSMOUTH    CLOUDY    86  71  60 SE7       29.63R HX  91
$$

NEZ044-045-051>053-067-230100-
OMAHA AREA

CITY           SKY/WX    TMP DP  RH WIND       PRES   REMARKS
OMAHA EPPLEY   PTSUNNY   89  68  49 NW8       29.61S HX  93
6HR MIN TEMP:  85; 6HR MAX TEMP:  92; 6HR PCP: TRACE;

BLAIR          MOSUNNY   87  69  53 N6        29.64S HX  91
FREMONT        PTSUNNY   86  68  54 N9        29.65R
MILLARD        CLOUDY    89  71  55 CALM      29.62S HX  95
OFFUTT AFB     PTSUNNY   87  73  62 CALM      29.61S HX  94
PLATTSMOUTH    CLOUDY    86  71  60 SE7       29.63R HX  91
WAHOO          CLOUDY    88  64  43 N3        29.63S
$$




USA.gov is the U.S. government's official web portal to all federal, state and local government web resources and services.